Osage River (Missouri), Saint Thomas (06926510)

StateMissouriLatestUnknown (29800 cfs)
RiverOsage RiverRatingObservedEstimated
Updated2026-05-10 7:45 (44 minutes ago)Flood - The river is flooding. Obstacles can be treacherous or deadly. The river should be avoided at this stage for casual trips and definitely for the inexperienced. Trips should be attempted only with protective gear and equipment.Flood(none)(none)
Discharge29800 cfs (median: 17400 cfs)High - The river is high and potentially dangerous, especially for the young and / or inexperienced. Normal stream obstacles are sometimes difficult to navigate. Extended distances can be attempted, but canoe travel may not be advisable.High(none)(none)
Height11.76 feetGood - Conditions are ideal for a canoe or kayak. Boats typically will drag on fewer than one-quarter of riffles, if at all, and portages are unnecessary or rare. Normal float lengths can be attempted without a problem.Good(none)(none)
TrendRising (falling over 24 hours)Low - River is low but can still be floated. Some riffles are okay but most come with significant dragging and might need a portage. Float lengths should be reduced to accommodate low flow, dragging, and portages.Low(none)(none)
USGSExternal icon USGS Site (External icon Duck Duck Go Maps)Poor - River is too low to float comfortably. Most or all riffles will drag or must be portaged and some obstacles (such as slick shelf rock) cause undue problems. Avoid the river at this stage for casual paddling trips.Poor(none)(none)

Trending Data

Plot Image

Trips for Osage River (Missouri), Saint Thomas (06926510)

DateStartEndDistanceConditionDischargeHeightFishingDetails

A total of 0 rows are displayed.

Condition Descriptions

Fishing Conditions

Fish Species

Notes

Classic Trip List

The classic River Trips application is still available for use. It is updated with the new system using a data retrofit. It is no longer maintained. The original River Trips application is no longer updated (as of 1 Dec 2016) but can be checked for errors or for the condition of the data before it was converted to the new system.

Gauge Data Table

ObservationHeightDischargeMaximum
Discharge
Minimum
Discharge
Mean
Discharge
P05P10P20P25P50
(Median)
P75P80P90P95
2026-05-10 07:45 11.76 29800 54600 (2009) 697 (2005) 21300 932 1490 2240 3000 17400 36400 38800 47900 52600
2026-05-10 06:45 11.68 29500 54600 (2009) 697 (2005) 21300 932 1490 2240 3000 17400 36400 38800 47900 52600
2026-05-10 05:45 11.53 29000 54600 (2009) 697 (2005) 21300 932 1490 2240 3000 17400 36400 38800 47900 52600
2026-05-10 04:45 11.42 28600 54600 (2009) 697 (2005) 21300 932 1490 2240 3000 17400 36400 38800 47900 52600
2026-05-10 03:45 11.32 28200 54600 (2009) 697 (2005) 21300 932 1490 2240 3000 17400 36400 38800 47900 52600
2026-05-10 02:45 11.16 27600 54600 (2009) 697 (2005) 21300 932 1490 2240 3000 17400 36400 38800 47900 52600
2026-05-10 01:45 11.05 27200 54600 (2009) 697 (2005) 21300 932 1490 2240 3000 17400 36400 38800 47900 52600
2026-05-10 00:45 10.96 26900 54600 (2009) 697 (2005) 21300 932 1490 2240 3000 17400 36400 38800 47900 52600
2026-05-09 23:45 10.96 26900 54600 (2009) 697 (2005) 21300 932 1490 2240 3000 17400 36400 38800 47900 52600
2026-05-09 22:45 11.01 27100 61400 (2009) 718 (2005) 23200 1040 1720 2420 4200 22900 35900 39400 53800 59200
2026-05-09 21:45 11.08 27300 61400 (2009) 718 (2005) 23200 1040 1720 2420 4200 22900 35900 39400 53800 59200
2026-05-09 20:45 11.21 27800 61400 (2009) 718 (2005) 23200 1040 1720 2420 4200 22900 35900 39400 53800 59200
2026-05-09 19:45 11.34 28300 61400 (2009) 718 (2005) 23200 1040 1720 2420 4200 22900 35900 39400 53800 59200
2026-05-09 18:45 11.48 28800 61400 (2009) 718 (2005) 23200 1040 1720 2420 4200 22900 35900 39400 53800 59200
2026-05-09 17:45 11.63 29400 61400 (2009) 718 (2005) 23200 1040 1720 2420 4200 22900 35900 39400 53800 59200
2026-05-09 16:45 11.81 30000 61400 (2009) 718 (2005) 23200 1040 1720 2420 4200 22900 35900 39400 53800 59200
2026-05-09 15:45 11.96 30600 61400 (2009) 718 (2005) 23200 1040 1720 2420 4200 22900 35900 39400 53800 59200
2026-05-09 14:45 12.18 31400 61400 (2009) 718 (2005) 23200 1040 1720 2420 4200 22900 35900 39400 53800 59200
2026-05-09 13:45 12.39 32300 61400 (2009) 718 (2005) 23200 1040 1720 2420 4200 22900 35900 39400 53800 59200
2026-05-09 12:45 12.57 32900 61400 (2009) 718 (2005) 23200 1040 1720 2420 4200 22900 35900 39400 53800 59200
2026-05-09 11:45 12.75 33700 61400 (2009) 718 (2005) 23200 1040 1720 2420 4200 22900 35900 39400 53800 59200
2026-05-09 10:45 12.90 34200 61400 (2009) 718 (2005) 23200 1040 1720 2420 4200 22900 35900 39400 53800 59200
2026-05-09 09:45 13.05 34900 61400 (2009) 718 (2005) 23200 1040 1720 2420 4200 22900 35900 39400 53800 59200
2026-05-09 08:45 13.16 35300 61400 (2009) 718 (2005) 23200 1040 1720 2420 4200 22900 35900 39400 53800 59200
2026-05-09 07:45 13.32 35900 61400 (2009) 718 (2005) 23200 1040 1720 2420 4200 22900 35900 39400 53800 59200
2026-05-09 06:45 13.47 36600 61400 (2009) 718 (2005) 23200 1040 1720 2420 4200 22900 35900 39400 53800 59200
2026-05-09 05:45 13.54 36800 61400 (2009) 718 (2005) 23200 1040 1720 2420 4200 22900 35900 39400 53800 59200
2026-05-09 04:45 13.64 37300 61400 (2009) 718 (2005) 23200 1040 1720 2420 4200 22900 35900 39400 53800 59200
2026-05-09 03:45 13.67 37400 61400 (2009) 718 (2005) 23200 1040 1720 2420 4200 22900 35900 39400 53800 59200
2026-05-09 02:45 13.67 37400 61400 (2009) 718 (2005) 23200 1040 1720 2420 4200 22900 35900 39400 53800 59200
2026-05-09 01:45 13.63 37200 61400 (2009) 718 (2005) 23200 1040 1720 2420 4200 22900 35900 39400 53800 59200
2026-05-09 00:45 13.64 37300 61400 (2009) 718 (2005) 23200 1040 1720 2420 4200 22900 35900 39400 53800 59200
2026-05-08 23:45 13.63 37200 61400 (2009) 718 (2005) 23200 1040 1720 2420 4200 22900 35900 39400 53800 59200
2026-05-08 22:45 13.62 37200 57000 (2024) 737 (2005) 23000 782 1420 1810 2190 28000 36200 39700 45700 55900
2026-05-08 21:45 13.60 37100 57000 (2024) 737 (2005) 23000 782 1420 1810 2190 28000 36200 39700 45700 55900
2026-05-08 20:45 13.57 37000 57000 (2024) 737 (2005) 23000 782 1420 1810 2190 28000 36200 39700 45700 55900
2026-05-08 19:45 13.55 36900 57000 (2024) 737 (2005) 23000 782 1420 1810 2190 28000 36200 39700 45700 55900
2026-05-08 18:45 13.49 36600 57000 (2024) 737 (2005) 23000 782 1420 1810 2190 28000 36200 39700 45700 55900
2026-05-08 17:45 13.53 36800 57000 (2024) 737 (2005) 23000 782 1420 1810 2190 28000 36200 39700 45700 55900
2026-05-08 16:45 13.48 36600 57000 (2024) 737 (2005) 23000 782 1420 1810 2190 28000 36200 39700 45700 55900
2026-05-08 15:45 13.47 36600 57000 (2024) 737 (2005) 23000 782 1420 1810 2190 28000 36200 39700 45700 55900
2026-05-08 14:45 13.45 36500 57000 (2024) 737 (2005) 23000 782 1420 1810 2190 28000 36200 39700 45700 55900
2026-05-08 13:45 13.41 36300 57000 (2024) 737 (2005) 23000 782 1420 1810 2190 28000 36200 39700 45700 55900
2026-05-08 12:45 13.42 36300 57000 (2024) 737 (2005) 23000 782 1420 1810 2190 28000 36200 39700 45700 55900
2026-05-08 11:45 13.40 36300 57000 (2024) 737 (2005) 23000 782 1420 1810 2190 28000 36200 39700 45700 55900
2026-05-08 10:45 13.34 36000 57000 (2024) 737 (2005) 23000 782 1420 1810 2190 28000 36200 39700 45700 55900
2026-05-08 09:45 13.36 36100 57000 (2024) 737 (2005) 23000 782 1420 1810 2190 28000 36200 39700 45700 55900
2026-05-08 08:45 13.33 36000 57000 (2024) 737 (2005) 23000 782 1420 1810 2190 28000 36200 39700 45700 55900
2026-05-08 07:45 13.33 36000 57000 (2024) 737 (2005) 23000 782 1420 1810 2190 28000 36200 39700 45700 55900
2026-05-08 06:45 13.31 35900 57000 (2024) 737 (2005) 23000 782 1420 1810 2190 28000 36200 39700 45700 55900
2026-05-08 05:45 13.30 35800 57000 (2024) 737 (2005) 23000 782 1420 1810 2190 28000 36200 39700 45700 55900
2026-05-08 04:45 13.29 35800 57000 (2024) 737 (2005) 23000 782 1420 1810 2190 28000 36200 39700 45700 55900
2026-05-08 03:45 13.31 35900 57000 (2024) 737 (2005) 23000 782 1420 1810 2190 28000 36200 39700 45700 55900
2026-05-08 02:45 13.32 35900 57000 (2024) 737 (2005) 23000 782 1420 1810 2190 28000 36200 39700 45700 55900
2026-05-08 01:45 13.31 35900 57000 (2024) 737 (2005) 23000 782 1420 1810 2190 28000 36200 39700 45700 55900
2026-05-08 00:45 13.36 36100 57000 (2024) 737 (2005) 23000 782 1420 1810 2190 28000 36200 39700 45700 55900
2026-05-07 23:45 13.32 35900 57000 (2024) 737 (2005) 23000 782 1420 1810 2190 28000 36200 39700 45700 55900
2026-05-07 22:45 13.35 36100 49100 (2009) 772 (2005) 22000 778 1210 1660 2210 25500 35700 36300 48600 48900
2026-05-07 21:45 13.32 35900 49100 (2009) 772 (2005) 22000 778 1210 1660 2210 25500 35700 36300 48600 48900
2026-05-07 20:45 13.32 35900 49100 (2009) 772 (2005) 22000 778 1210 1660 2210 25500 35700 36300 48600 48900
2026-05-07 19:45 13.34 36000 49100 (2009) 772 (2005) 22000 778 1210 1660 2210 25500 35700 36300 48600 48900
2026-05-07 18:45 13.35 36100 49100 (2009) 772 (2005) 22000 778 1210 1660 2210 25500 35700 36300 48600 48900
2026-05-07 17:45 13.38 36200 49100 (2009) 772 (2005) 22000 778 1210 1660 2210 25500 35700 36300 48600 48900
2026-05-07 16:45 13.41 36300 49100 (2009) 772 (2005) 22000 778 1210 1660 2210 25500 35700 36300 48600 48900
2026-05-07 15:45 13.48 36600 49100 (2009) 772 (2005) 22000 778 1210 1660 2210 25500 35700 36300 48600 48900
2026-05-07 14:45 13.50 36700 49100 (2009) 772 (2005) 22000 778 1210 1660 2210 25500 35700 36300 48600 48900
2026-05-07 13:45 13.50 36700 49100 (2009) 772 (2005) 22000 778 1210 1660 2210 25500 35700 36300 48600 48900
2026-05-07 12:45 13.56 36900 49100 (2009) 772 (2005) 22000 778 1210 1660 2210 25500 35700 36300 48600 48900
2026-05-07 11:45 13.54 36800 49100 (2009) 772 (2005) 22000 778 1210 1660 2210 25500 35700 36300 48600 48900
2026-05-07 10:45 13.58 37000 49100 (2009) 772 (2005) 22000 778 1210 1660 2210 25500 35700 36300 48600 48900
2026-05-07 09:45 13.54 36800 49100 (2009) 772 (2005) 22000 778 1210 1660 2210 25500 35700 36300 48600 48900
2026-05-07 08:45 13.57 37000 49100 (2009) 772 (2005) 22000 778 1210 1660 2210 25500 35700 36300 48600 48900
2026-05-07 07:45 13.55 36900 49100 (2009) 772 (2005) 22000 778 1210 1660 2210 25500 35700 36300 48600 48900
2026-05-07 06:45 13.55 36900 49100 (2009) 772 (2005) 22000 778 1210 1660 2210 25500 35700 36300 48600 48900
2026-05-07 05:45 13.56 36900 49100 (2009) 772 (2005) 22000 778 1210 1660 2210 25500 35700 36300 48600 48900
2026-05-07 04:45 13.52 36800 49100 (2009) 772 (2005) 22000 778 1210 1660 2210 25500 35700 36300 48600 48900
2026-05-07 03:45 13.53 36800 49100 (2009) 772 (2005) 22000 778 1210 1660 2210 25500 35700 36300 48600 48900
2026-05-07 02:45 13.51 36700 49100 (2009) 772 (2005) 22000 778 1210 1660 2210 25500 35700 36300 48600 48900
2026-05-07 01:45 13.49 36600 49100 (2009) 772 (2005) 22000 778 1210 1660 2210 25500 35700 36300 48600 48900
2026-05-07 00:45 13.50 36700 49100 (2009) 772 (2005) 22000 778 1210 1660 2210 25500 35700 36300 48600 48900
2026-05-06 23:45 13.47 36600 49100 (2009) 772 (2005) 22000 778 1210 1660 2210 25500 35700 36300 48600 48900

A total of 81 rows are displayed for years 1997 through 2025.